period_start,C,m1,H,J0,J1,J2,J3,J4,J5,JA,JB,JC,JD,JJ,JK,JN,#
2013-11-03 00:00:42,0.00,0.91,0.00,19.63,21.09,23.99,6.10,31.38,1007.33,2069.03,3130.81,3130.83,3355.00,350.30,324.98,17.82,0000 0000 0000 0000 000000
2013-11-03 00:01:42,0.03,0.91,0.00,19.62,21.09,24.02,5.92,31.33,1007.33,2069.03,3130.47,3130.65,3355.00,350.53,325.19,17.83,0000 0000 0000 0000 000000
2013-11-03 00:02:42,0.12,0.92,0.00,19.63,21.09,23.99,5.98,31.25,1007.34,2069.07,3130.22,3130.38,3354.99,350.24,325.02,17.83,0000 0000 0000 0000 000000
2013-11-03 00:03:43,0.13,0.92,0.00,19.63,21.09,23.97,5.99,30.92,1007.34,2069.05,3130.09,3130.17,3354.95,349.98,324.69,17.84,0000 0000 0000 0000 000000
2013-11-03 00:04:43,0.03,0.92,0.00,19.63,21.09,23.97,6.07,31.21,1007.34,2069.07,3130.04,3130.07,3354.89,350.90,325.55,17.85,0000 0000 0000 0000 000000
2013-11-03 00:05:43,0.03,0.92,0.00,19.62,21.09,23.99,6.02,31.46,1007.34,2069.06,3130.01,3130.04,3354.80,349.39,324.15,17.85,0000 0000 0000 0000 000000
2013-11-03 00:06:43,0.04,0.92,0.00,19.62,21.09,24.02,6.11,31.46,1007.34,2069.06,3130.00,3130.02,3354.49,350.31,325.00,17.86,0000 0000 0000 0000 000000
2013-11-03 00:07:43,0.02,0.92,0.00,19.64,21.09,23.99,5.92,31.42,1007.34,2069.04,3130.00,3130.01,3354.25,348.97,324.29,17.86,0000 0000 0000 0000 000000
2013-11-03 00:08:44,0.02,0.92,0.00,19.64,21.09,23.99,5.99,31.25,1007.33,2069.04,3130.00,3130.00,3354.11,350.20,325.01,17.87,0000 0000 0000 0000 000000
2013-11-03 00:09:44,0.01,0.92,0.00,19.64,21.10,23.99,5.94,31.38,1007.33,2069.02,3129.93,3130.00,3354.06,349.94,324.63,17.87,0000 0000 0000 0000 000000
2013-11-03 00:10:44,0.00,0.92,0.00,19.64,21.10,23.97,6.05,31.42,1007.30,2069.02,3129.65,3130.00,3354.02,349.99,324.49,17.88,0000 0000 0000 0000 000000
2013-11-03 00:11:45,0.05,0.92,0.00,19.61,21.10,23.99,5.77,31.17,1007.32,2069.02,3129.40,3129.98,3354.00,350.13,324.83,17.89,0000 0000 0000 0000 000000
2013-11-03 00:12:45,0.05,0.92,0.00,19.62,21.11,24.00,5.96,31.50,1007.31,2069.02,3129.19,3129.91,3354.00,348.98,323.75,17.89,0000 0000 0000 0000 000000
2013-11-03 00:13:45,0.03,0.92,0.00,19.63,21.12,24.06,6.05,31.33,1007.23,2069.01,3129.08,3129.73,3353.97,350.37,325.05,17.90,0000 0000 0000 0000 000000
2013-11-03 00:14:45,0.06,0.92,0.00,19.60,21.12,24.01,5.89,31.08,1007.24,2069.00,3129.03,3129.41,3353.94,350.02,324.55,17.90,0000 0000 0000 0000 000000
2013-11-03 00:15:46,0.06,0.92,0.00,19.60,21.12,23.99,6.07,31.63,1007.25,2069.00,3129.00,3129.29,3353.91,350.64,324.83,17.91,0000 0000 0000 0000 000000
2013-11-03 00:16:46,0.03,0.92,0.00,19.63,21.12,24.02,5.87,31.21,1007.28,2069.00,3128.99,3129.17,3353.65,349.13,323.58,17.92,0000 0000 0000 0000 000000
2013-11-03 00:17:46,0.07,0.92,0.00,19.63,21.12,23.98,5.93,31.50,1007.28,2069.00,3128.98,3129.08,3353.39,349.33,324.37,17.92,0000 0000 0000 0000 000000
2013-11-03 00:18:46,0.05,0.92,0.00,19.62,21.12,23.98,5.98,31.08,1007.28,2069.00,3128.98,3129.04,3353.20,350.01,324.70,17.93,0000 0000 0000 0000 000000
2013-11-03 00:19:47,0.02,0.92,0.00,19.63,21.12,24.00,6.07,31.54,1007.31,2069.00,3128.84,3129.01,3353.09,349.88,325.05,17.93,0000 0000 0000 0000 000000
2013-11-03 00:20:47,0.05,0.92,0.00,19.63,21.12,24.01,6.00,31.33,1007.30,2069.00,3128.57,3129.00,3353.04,350.40,324.83,17.94,0000 0000 0000 0000 000000
2013-11-03 00:21:47,0.02,0.92,0.00,19.61,21.12,23.98,6.03,31.25,1007.27,2069.01,3128.42,3129.00,3353.01,351.24,325.38,17.94,0000 0000 0000 0000 000000
2013-11-03 00:22:47,0.04,0.92,0.00,19.63,21.12,24.02,6.09,31.38,1007.24,2069.00,3128.19,3129.00,3353.00,350.38,325.16,17.95,0000 0000 0000 0000 000000
2013-11-03 00:23:48,0.02,0.92,0.00,19.63,21.13,24.02,5.93,30.92,1007.30,2069.00,3128.09,3129.00,3353.00,350.44,325.26,17.96,0000 0000 0000 0000 000000
2013-11-03 00:24:48,0.01,0.92,0.00,19.62,21.14,24.00,5.96,31.29,1007.26,2069.00,3128.03,3129.00,3353.00,350.41,325.07,17.96,0000 0000 0000 0000 000000
2013-11-03 00:25:48,0.00,0.92,0.00,19.61,21.14,24.03,5.98,31.58,1007.17,2069.00,3128.00,3128.99,3352.98,350.19,324.85,17.97,0000 0000 0000 0000 000000
2013-11-03 00:26:48,0.00,0.92,0.00,19.62,21.14,24.02,5.92,31.38,1007.09,2069.00,3128.00,3128.96,3352.95,349.65,324.53,17.97,0000 0000 0000 0000 000000
2013-11-03 00:27:49,0.01,0.92,0.00,19.62,21.14,24.00,6.03,31.58,1007.05,2069.00,3128.00,3128.84,3352.89,350.32,325.15,17.98,0000 0000 0000 0000 000000
2013-11-03 00:28:49,0.04,0.92,0.00,19.61,21.14,24.02,6.03,31.54,1007.02,2069.00,3127.99,3128.73,3352.79,350.64,325.23,17.99,0000 0000 0000 0000 000000
2013-11-03 00:29:49,0.03,0.92,0.00,19.61,21.14,24.01,5.95,31.50,1006.96,2069.00,3127.97,3128.52,3352.47,348.77,323.47,17.99,0000 0000 0000 0000 000000
2013-11-03 00:30:49,0.08,0.92,0.00,19.61,21.14,24.01,5.84,31.54,1006.91,2069.00,3127.84,3128.29,3352.26,349.68,324.32,18.00,0000 0000 0000 0000 000000
2013-11-03 00:31:50,0.11,0.92,0.00,19.61,21.14,24.05,5.85,31.21,1006.90,2069.00,3127.59,3128.14,3352.13,349.49,324.11,18.00,0000 0000 0000 0000 000000
2013-11-03 00:32:50,0.09,0.92,0.00,19.63,21.14,24.01,5.92,31.38,1006.92,2069.00,3127.27,3128.05,3352.05,349.88,324.58,18.01,0000 0000 0000 0000 000000
2013-11-03 00:33:50,0.06,0.92,0.00,19.62,21.15,24.03,5.93,31.50,1006.88,2069.00,3127.10,3128.01,3352.02,348.70,324.11,18.02,0000 0000 0000 0000 000000
2013-11-03 00:34:51,0.03,0.92,0.00,19.59,21.15,24.02,6.02,31.83,1006.91,2069.00,3127.03,3128.00,3352.00,350.97,325.27,18.02,0000 0000 0000 0000 000000
2013-11-03 00:35:51,0.00,0.92,0.00,19.62,21.15,24.03,5.90,31.67,1006.93,2069.00,3127.01,3128.00,3352.00,349.57,324.19,18.03,0000 0000 0000 0000 000000
2013-11-03 00:36:51,0.00,0.92,0.00,19.63,21.15,24.05,6.02,31.50,1007.04,2069.00,3127.00,3128.00,3352.00,350.60,325.21,18.03,0000 0000 0000 0000 000000
2013-11-03 00:37:51,0.00,0.92,0.00,19.63,21.15,24.02,6.10,31.54,1007.02,2069.00,3127.00,3127.99,3351.99,351.27,325.79,18.04,0000 0000 0000 0000 000000
2013-11-03 00:38:52,0.00,0.92,0.00,19.63,21.16,24.02,6.01,31.13,1007.00,2069.00,3127.00,3127.98,3351.99,350.87,325.41,18.04,0000 0000 0000 0000 000000
2013-11-03 00:39:52,0.00,0.92,0.00,19.62,21.16,24.03,5.86,31.17,1006.96,2069.00,3126.92,3127.98,3351.96,350.02,324.56,18.05,0000 0000 0000 0000 000000
2013-11-03 00:40:52,0.02,0.92,0.00,19.61,21.16,24.04,5.92,31.38,1006.94,2069.00,3126.64,3127.98,3351.77,350.03,324.44,18.06,0000 0000 0000 0000 000000
2013-11-03 00:41:53,0.07,0.92,0.00,19.62,21.17,24.04,5.95,31.29,1006.92,2068.99,3126.35,3127.92,3351.54,350.37,324.92,18.06,0000 0000 0000 0000 000000
2013-11-03 00:42:53,0.07,0.92,0.00,19.62,21.17,24.05,5.87,31.67,1006.92,2068.99,3126.14,3127.64,3351.27,349.37,323.99,18.07,0000 0000 0000 0000 000000
2013-11-03 00:43:53,0.14,0.93,0.00,19.61,21.17,24.04,5.93,32.00,1006.89,2068.99,3126.05,3127.39,3351.12,350.02,324.61,18.07,0000 0000 0000 0000 000000
2013-11-03 00:44:54,0.07,0.93,0.00,19.60,21.17,24.06,5.97,31.67,1006.87,2068.99,3126.02,3127.20,3351.06,349.32,323.94,18.08,0000 0000 0000 0000 000000
2013-11-03 00:45:54,0.04,0.93,0.00,19.63,21.17,24.07,5.94,31.58,1006.88,2068.99,3126.00,3127.13,3351.03,349.87,324.51,18.09,0000 0000 0000 0000 000000
2013-11-03 00:46:54,0.02,0.93,0.00,19.63,21.17,24.06,5.78,31.33,1006.91,2068.99,3126.00,3127.09,3351.01,348.41,323.22,18.09,0000 0000 0000 0000 000000
2013-11-03 00:47:54,0.00,0.93,0.00,19.63,21.17,24.09,6.07,31.75,1006.92,2068.99,3126.00,3127.07,3351.00,350.12,325.08,18.10,0000 0000 0000 0000 000000
2013-11-03 00:48:55,0.00,0.93,0.00,19.63,21.17,24.09,5.92,31.50,1006.87,2068.99,3126.00,3127.03,3351.00,349.84,324.47,18.10,0000 0000 0000 0000 000000
2013-11-03 00:49:55,0.01,0.93,0.00,19.61,21.17,24.03,6.05,31.71,1006.94,2068.98,3125.99,3127.01,3351.00,349.34,323.77,18.11,0000 0000 0000 0000 000000
2013-11-03 00:50:55,0.00,0.93,0.00,19.59,21.17,24.03,6.07,31.79,1007.01,2068.98,3125.94,3127.00,3350.99,349.80,324.15,18.11,0000 0000 0000 0000 000000
2013-11-03 00:51:55,0.00,0.93,0.00,19.58,21.17,24.04,5.99,31.58,1007.02,2068.99,3125.86,3127.00,3350.98,349.63,324.32,18.12,0000 0000 0000 0000 000000
2013-11-03 00:52:56,0.01,0.93,0.00,19.60,21.17,24.10,5.98,31.58,1006.99,2068.99,3125.46,3126.99,3350.97,350.38,324.72,18.13,0000 0000 0000 0000 000000
2013-11-03 00:53:56,0.07,0.93,0.00,19.59,21.17,24.08,5.98,31.79,1006.93,2068.99,3125.22,3126.99,3350.86,349.78,324.07,18.13,0000 0000 0000 0000 000000
2013-11-03 00:54:56,0.04,0.93,0.00,19.60,21.17,24.08,6.02,31.63,1006.95,2068.99,3125.08,3126.98,3350.46,350.08,324.48,18.14,0000 0000 0000 0000 000000
2013-11-03 00:55:56,0.08,0.93,0.00,19.58,21.17,24.07,6.00,31.71,1007.01,2068.98,3125.03,3126.98,3350.25,349.18,323.60,18.14,0000 0000 0000 0000 000000
2013-11-03 00:56:57,0.01,0.93,0.00,19.58,21.17,24.08,6.01,31.54,1007.01,2068.99,3125.01,3126.95,3350.14,349.89,324.79,18.15,0000 0000 0000 0000 000000
2013-11-03 00:57:57,0.02,0.93,0.00,19.60,21.18,24.09,6.08,32.08,1007.02,2068.97,3124.99,3126.69,3350.08,349.64,324.76,18.16,0000 0000 0000 0000 000000
2013-11-03 00:58:57,0.07,0.93,0.00,19.60,21.18,24.08,5.99,31.33,1007.14,2068.98,3124.99,3126.47,3350.03,349.78,324.35,18.16,0000 0000 0000 0000 000000
2013-11-03 00:59:57,0.07,0.93,0.00,19.61,21.18,24.07,5.92,31.67,1007.21,2068.97,3124.98,3126.25,3350.01,349.40,324.05,18.17,0000 0000 0000 0000 000000
2013-11-03 01:00:57,0.02,0.93,0.00,19.60,21.18,24.08,6.07,31.71,1007.23,2068.97,3124.94,3126.12,3350.00,350.14,324.67,18.17,0000 0000 0000 0000 000000
2013-11-03 01:01:58,0.04,0.93,0.00,19.59,21.19,24.05,5.92,31.79,1007.20,2068.98,3124.56,3126.05,3349.99,350.45,325.13,18.18,0000 0000 0000 0000 000000
2013-11-03 01:02:58,0.09,0.93,0.00,19.59,21.19,24.05,5.99,31.42,1007.19,2068.97,3124.23,3126.01,3349.99,351.02,325.65,18.18,0000 0000 0000 0000 000000
2013-11-03 01:03:58,0.03,0.93,0.00,19.60,21.19,24.09,6.07,31.50,1007.30,2068.97,3124.11,3126.00,3349.96,349.82,324.56,18.19,0000 0000 0000 0000 000000
2013-11-03 01:04:59,0.01,0.93,0.00,19.60,21.19,24.08,5.96,31.71,1007.29,2068.98,3124.08,3126.00,3349.93,349.44,324.20,18.20,0000 0000 0000 0000 000000
2013-11-03 01:05:59,0.02,0.93,0.00,19.60,21.19,24.07,5.99,31.46,1007.32,2068.99,3124.03,3126.00,3349.84,349.72,324.68,18.20,0000 0000 0000 0000 000000
2013-11-03 01:06:59,0.02,0.93,0.00,19.57,21.19,24.09,5.83,31.83,1007.32,2068.97,3124.01,3126.00,3349.75,348.53,323.40,18.21,0000 0000 0000 0000 000000
2013-11-03 01:07:59,0.00,0.93,0.00,19.56,21.19,24.12,5.93,31.50,1007.31,2068.99,3124.00,3126.00,3349.51,349.23,324.40,18.21,0000 0000 0000 0000 000000
2013-11-03 01:09:00,0.04,0.93,0.00,19.56,21.19,24.10,6.06,31.96,1007.30,2068.98,3124.00,3125.99,3349.23,350.34,325.14,18.22,0000 0000 0000 0000 000000
2013-11-03 01:10:00,0.02,0.93,0.00,19.56,21.19,24.08,5.93,31.33,1007.32,2068.99,3123.96,3125.95,3349.10,349.89,324.68,18.23,0000 0000 0000 0000 000000
2013-11-03 01:11:00,0.04,0.93,0.00,19.56,21.19,24.07,6.00,31.33,1007.33,2068.96,3123.89,3125.92,3349.04,350.13,324.91,18.23,0000 0000 0000 0000 000000
2013-11-03 01:12:00,0.00,0.93,0.00,19.57,21.19,24.09,5.90,31.29,1007.33,2068.96,3123.70,3125.84,3349.01,349.68,324.47,18.24,0000 0000 0000 0000 000000
2013-11-03 01:13:00,0.05,0.93,0.00,19.59,21.19,24.07,5.95,31.29,1007.34,2068.96,3123.43,3125.66,3349.00,349.67,324.64,18.24,0000 0000 0000 0000 000000
2013-11-03 01:14:01,0.08,0.93,0.00,19.57,21.19,24.08,5.93,31.42,1007.32,2068.95,3123.20,3125.36,3349.00,349.75,324.76,18.25,0000 0000 0000 0000 000000
2013-11-03 01:15:01,0.10,0.93,0.00,19.55,21.19,24.09,5.87,31.83,1007.34,2068.95,3123.08,3125.17,3349.00,349.64,324.46,18.25,0000 0000 0000 0000 000000
2013-11-03 01:16:01,0.06,0.93,0.00,19.56,21.19,24.04,5.98,31.29,1007.34,2068.96,3123.03,3125.06,3348.99,350.59,325.34,18.26,0000 0000 0000 0000 000000
2013-11-03 01:17:01,0.02,0.93,0.00,19.57,21.19,24.08,6.06,31.58,1007.34,2068.96,3123.01,3125.06,3348.99,351.08,325.77,18.27,0000 0000 0000 0000 000000
2013-11-03 01:18:02,0.00,0.93,0.00,19.58,21.19,24.11,5.84,30.96,1007.34,2068.97,3123.00,3125.03,3348.97,350.75,325.18,18.27,0000 0000 0000 0000 000000
2013-11-03 01:19:02,0.02,0.93,0.00,19.58,21.19,24.10,6.01,31.42,1007.34,2068.98,3122.99,3125.01,3348.90,349.63,324.42,18.28,0000 0000 0000 0000 000000
2013-11-03 01:20:02,0.02,0.93,0.00,19.58,21.19,24.12,5.90,31.08,1007.34,2068.92,3122.98,3125.00,3348.68,348.87,323.88,18.28,0000 0000 0000 0000 000000
2013-11-03 01:21:02,-0.02,0.93,0.00,19.58,21.19,24.12,6.00,31.58,1007.34,2068.88,3122.95,3125.00,3348.42,350.03,324.38,18.29,0000 0000 0000 0000 000000
2013-11-03 01:22:03,0.00,0.93,0.00,19.58,21.19,24.15,5.85,31.33,1007.35,2068.89,3122.83,3125.00,3348.22,350.05,324.81,18.30,0000 0000 0000 0000 000000
2013-11-03 01:23:03,0.06,0.93,0.00,19.59,21.19,24.16,5.97,31.33,1007.35,2068.80,3122.43,3125.00,3348.10,350.05,324.80,18.30,0000 0000 0000 0000 000000
2013-11-03 01:24:03,0.02,0.93,0.00,19.58,21.19,24.10,5.97,30.75,1007.34,2068.86,3122.17,3125.00,3348.05,348.82,323.66,18.31,0000 0000 0000 0000 000000
2013-11-03 01:25:04,0.09,0.93,0.00,19.57,21.19,24.13,5.98,31.21,1007.35,2068.88,3122.07,3125.00,3348.02,350.45,324.88,18.31,0000 0000 0000 0000 000000
2013-11-03 01:26:04,0.00,0.93,0.00,19.57,21.20,24.14,5.94,31.29,1007.34,2068.88,3122.05,3124.96,3348.00,350.08,324.84,18.32,0000 0000 0000 0000 000000
2013-11-03 01:27:04,0.02,0.93,0.00,19.57,21.19,24.11,6.07,31.38,1007.34,2068.88,3122.02,3124.86,3348.00,350.92,325.62,18.33,0000 0000 0000 0000 000000
2013-11-03 01:28:04,0.03,0.94,0.00,19.57,21.19,24.08,5.92,31.54,1007.34,2068.92,3122.00,3124.86,3348.00,349.61,324.41,18.33,0000 0000 0000 0000 000000
2013-11-03 01:29:04,0.04,0.94,0.00,19.57,21.20,24.07,6.02,31.21,1007.34,2068.88,3122.00,3124.68,3347.99,350.68,325.00,18.34,0000 0000 0000 0000 000000
2013-11-03 01:30:05,0.01,0.94,0.00,19.55,21.19,24.10,5.91,31.13,1007.34,2068.84,3122.00,3124.47,3347.98,349.62,324.75,18.34,0000 0000 0000 0000 000000
2013-11-03 01:31:05,0.03,0.94,0.00,19.57,21.20,24.08,6.03,31.17,1007.34,2068.84,3121.99,3124.32,3347.98,350.21,324.97,18.35,0000 0000 0000 0000 000000
2013-11-03 01:32:05,0.05,0.94,0.00,19.59,21.19,24.11,5.95,31.17,1007.34,2068.84,3121.95,3124.14,3347.95,349.53,324.32,18.35,0000 0000 0000 0000 000000
2013-11-03 01:33:05,0.05,0.94,0.00,19.59,21.20,24.11,5.87,31.13,1007.34,2068.84,3121.69,3124.06,3347.77,348.81,323.65,18.36,0000 0000 0000 0000 000000
2013-11-03 01:34:05,0.07,0.94,0.00,19.57,21.20,24.12,5.99,31.29,1007.34,2068.80,3121.32,3124.03,3347.46,349.14,324.34,18.37,0000 0000 0000 0000 000000
2013-11-03 01:35:06,0.05,0.94,0.00,19.56,21.19,24.12,5.91,31.08,1007.34,2068.79,3121.16,3124.02,3347.25,350.04,324.39,18.37,0000 0000 0000 0000 000000
2013-11-03 01:36:06,0.05,0.94,0.00,19.57,21.19,24.13,6.01,31.21,1007.34,2068.77,3121.08,3124.00,3347.12,349.97,324.67,18.38,0000 0000 0000 0000 000000
2013-11-03 01:37:06,0.04,0.94,0.00,19.57,21.19,24.13,6.05,31.33,1007.34,2068.81,3121.04,3124.00,3347.06,351.20,325.89,18.38,0000 0000 0000 0000 000000
2013-11-03 01:38:07,0.03,0.94,0.00,19.56,21.19,24.12,5.97,30.83,1007.34,2068.86,3121.01,3124.00,3347.03,349.99,324.85,18.39,0000 0000 0000 0000 000000
2013-11-03 01:39:07,0.04,0.94,0.00,19.54,21.19,24.11,5.88,30.83,1007.34,2068.87,3121.00,3124.00,3347.01,349.57,323.96,18.40,0000 0000 0000 0000 000000
2013-11-03 01:40:07,0.01,0.94,0.00,19.55,21.19,24.09,5.95,31.13,1007.34,2068.91,3121.00,3124.00,3347.04,349.49,324.33,18.40,0000 0000 0000 0000 000000
2013-11-03 01:41:08,0.02,0.94,0.00,19.55,21.20,24.09,5.91,31.42,1007.33,2068.89,3121.00,3123.98,3347.02,349.53,324.26,18.41,0000 0000 0000 0000 000000
2013-11-03 01:42:08,-0.01,0.94,0.00,19.57,21.20,24.10,5.82,31.25,1007.33,2068.85,3120.98,3123.97,3347.00,350.13,324.48,18.41,0000 0000 0000 0000 000000
2013-11-03 01:43:08,-0.02,0.94,0.00,19.58,21.20,24.10,5.94,31.29,1007.33,2068.89,3120.90,3123.95,3347.00,349.52,324.31,18.42,0000 0000 0000 0000 000000
2013-11-03 01:44:08,0.05,0.94,0.00,19.57,21.19,24.09,5.94,31.54,1007.34,2068.90,3120.83,3123.92,3347.00,350.87,325.57,18.42,0000 0000 0000 0000 000000
2013-11-03 01:45:08,0.01,0.94,0.00,19.57,21.19,24.07,6.03,31.42,1007.34,2068.90,3120.52,3123.79,3347.00,350.63,325.36,18.43,0000 0000 0000 0000 000000
2013-11-03 01:46:08,0.10,0.94,0.00,19.56,21.19,24.07,5.97,31.17,1007.34,2068.88,3120.30,3123.73,3347.00,349.56,324.37,18.44,0000 0000 0000 0000 000000
2013-11-03 01:47:09,0.04,0.94,0.00,19.56,21.19,24.11,5.94,31.46,1007.34,2068.85,3120.16,3123.49,3346.98,350.16,324.94,18.44,0000 0000 0000 0000 000000
2013-11-03 01:48:09,0.04,0.94,0.00,19.58,21.20,24.12,6.11,31.13,1007.34,2068.80,3120.08,3123.26,3346.94,351.75,326.39,18.45,0000 0000 0000 0000 000000
2013-11-03 01:49:09,0.03,0.94,0.00,19.58,21.20,24.11,6.08,31.42,1007.34,2068.81,3120.04,3123.16,3346.78,350.94,325.63,18.45,0000 0000 0000 0000 000000
2013-11-03 01:50:09,0.08,0.94,0.00,19.58,21.20,24.10,5.85,31.13,1007.34,2068.88,3120.02,3123.10,3346.70,349.21,324.02,18.46,0000 0000 0000 0000 000000
2013-11-03 01:51:10,0.06,0.94,0.00,19.58,21.20,24.11,5.97,31.21,1007.34,2068.91,3120.01,3123.06,3346.50,350.30,325.26,18.47,0000 0000 0000 0000 000000
2013-11-03 01:52:10,0.06,0.94,0.00,19.60,21.20,24.12,6.03,30.96,1007.34,2068.87,3119.99,3123.02,3346.31,350.61,325.30,18.47,0000 0000 0000 0000 000000
2013-11-03 01:53:10,0.01,0.94,0.00,19.58,21.19,24.12,5.98,31.33,1007.34,2068.86,3119.97,3123.00,3346.13,350.54,325.45,18.48,0000 0000 0000 0000 000000
2013-11-03 01:54:10,0.00,0.94,0.00,19.58,21.20,24.11,5.83,31.00,1007.34,2068.84,3119.96,3123.00,3346.07,348.19,323.68,18.48,0000 0000 0000 0000 000000
2013-11-03 01:55:11,0.00,0.94,0.00,19.59,21.20,24.12,5.92,31.21,1007.34,2068.84,3119.92,3123.00,3346.03,349.19,324.11,18.49,0000 0000 0000 0000 000000
2013-11-03 01:56:11,0.00,0.94,0.00,19.61,21.19,24.11,5.97,31.21,1007.34,2068.86,3119.92,3123.00,3346.02,350.67,325.35,18.49,0000 0000 0000 0000 000000
2013-11-03 01:57:11,0.01,0.94,0.00,19.61,21.19,24.09,6.01,31.83,1007.34,2068.92,3119.82,3123.00,3346.00,349.46,324.22,18.50,0000 0000 0000 0000 000000
2013-11-03 01:58:11,0.04,0.94,0.00,19.57,21.19,24.08,5.98,31.29,1007.34,2068.91,3119.50,3123.00,3346.00,349.81,324.50,18.51,0000 0000 0000 0000 000000
2013-11-03 01:59:12,0.02,0.94,0.00,19.57,21.20,24.07,6.01,31.33,1007.34,2068.93,3119.20,3123.00,3346.00,350.61,325.34,18.51,0000 0000 0000 0000 000000
2013-11-03 02:00:12,0.07,0.94,0.00,19.59,21.20,24.09,5.97,31.29,1007.34,2068.89,3119.07,3122.97,3345.99,348.77,323.98,18.52,0000 0000 0000 0000 000000
2013-11-03 02:01:12,-0.01,0.94,0.00,19.58,21.19,24.08,5.94,31.21,1007.34,2068.90,3119.03,3122.96,3345.99,349.61,324.62,18.52,0000 0000 0000 0000 000000
2013-11-03 02:02:12,0.02,0.94,0.00,19.59,21.19,24.09,5.96,31.50,1007.34,2068.85,3119.00,3122.95,3345.99,350.10,325.13,18.53,0000 0000 0000 0000 000000
2013-11-03 02:03:13,-0.03,0.94,0.00,19.58,21.19,24.06,6.02,31.54,1007.34,2068.82,3119.00,3122.88,3345.94,350.11,324.86,18.54,0000 0000 0000 0000 000000
2013-11-03 02:04:13,-0.01,0.94,0.00,19.58,21.19,24.06,5.87,30.83,1007.34,2068.79,3118.99,3122.65,3345.74,350.08,324.83,18.54,0000 0000 0000 0000 000000
2013-11-03 02:05:13,0.08,0.94,0.00,19.58,21.20,24.08,5.82,31.00,1007.34,2068.80,3118.96,3122.35,3345.49,347.96,322.87,18.55,0000 0000 0000 0000 000000
2013-11-03 02:06:14,0.12,0.94,0.00,19.58,21.19,24.08,6.11,31.13,1007.34,2068.86,3118.93,3122.19,3345.29,350.50,325.22,18.55,0000 0000 0000 0000 000000
2013-11-03 02:07:14,0.10,0.94,0.00,19.58,21.20,24.08,5.98,31.50,1007.34,2068.88,3118.87,3122.09,3345.14,349.71,324.49,18.56,0000 0000 0000 0000 000000
2013-11-03 02:08:14,0.08,0.94,0.00,19.58,21.19,24.06,6.02,31.75,1007.34,2068.88,3118.63,3122.04,3345.06,349.51,324.30,18.57,0000 0000 0000 0000 000000
2013-11-03 02:09:14,0.04,0.94,0.00,19.57,21.20,24.05,6.02,31.21,1007.34,2068.79,3118.32,3122.01,3345.02,350.48,325.22,18.57,0000 0000 0000 0000 000000
2013-11-03 02:10:15,-0.01,0.94,0.00,19.58,21.20,24.10,5.83,31.42,1007.33,2068.83,3118.16,3122.00,3345.00,348.87,323.94,18.58,0000 0000 0000 0000 000000
2013-11-03 02:11:15,0.04,0.94,0.00,19.60,21.19,24.08,6.00,31.63,1007.33,2068.80,3118.07,3122.00,3345.00,349.50,324.27,18.58,0000 0000 0000 0000 000000
2013-11-03 02:12:15,0.03,0.94,0.00,19.59,21.19,24.11,6.09,31.21,1007.34,2068.86,3118.05,3122.00,3345.00,351.68,326.32,18.59,0000 0000 0000 0000 000000
2013-11-03 02:13:15,0.04,0.94,0.00,19.59,21.20,24.13,6.04,31.21,1007.34,2068.82,3118.02,3122.00,3345.00,350.28,324.64,18.59,0000 0000 0000 0000 000000
2013-11-03 02:14:16,-0.04,0.94,0.00,19.57,21.19,24.11,6.00,31.63,1007.34,2068.73,3118.00,3121.99,3345.00,350.29,325.05,18.60,0000 0000 0000 0000 000000
2013-11-03 02:15:16,-0.04,0.94,0.00,19.57,21.20,24.11,6.08,31.58,1007.34,2068.76,3117.99,3121.99,3344.96,350.74,325.44,18.61,0000 0000 0000 0000 000000
2013-11-03 02:16:16,0.04,0.94,0.00,19.57,21.20,24.13,5.73,31.46,1007.34,2068.87,3117.99,3121.98,3344.96,349.19,324.01,18.61,0000 0000 0000 0000 000000
2013-11-03 02:17:17,0.07,0.94,0.00,19.56,21.20,24.11,6.05,31.42,1007.34,2068.88,3117.99,3121.99,3344.97,349.71,324.71,18.62,0000 0000 0000 0000 000000
2013-11-03 02:18:17,0.01,0.94,0.00,19.58,21.20,24.11,6.06,31.67,1007.34,2068.90,3117.97,3121.97,3344.93,350.40,324.88,18.62,0000 0000 0000 0000 000000
2013-11-03 02:19:17,0.03,0.95,0.00,19.58,21.20,24.07,6.02,31.38,1007.34,2068.92,3117.85,3121.95,3344.77,349.85,324.40,18.63,0000 0000 0000 0000 000000
2013-11-03 02:20:17,0.05,0.95,0.00,19.59,21.20,24.09,5.97,31.13,1007.34,2068.89,3117.61,3121.90,3344.50,350.09,324.78,18.64,0000 0000 0000 0000 000000
2013-11-03 02:21:18,0.07,0.95,0.00,19.61,21.20,24.09,5.96,31.33,1007.34,2068.85,3117.30,3121.70,3344.24,350.16,324.88,18.64,0000 0000 0000 0000 000000
2013-11-03 02:22:18,0.08,0.95,0.00,19.56,21.19,24.09,5.98,31.25,1007.34,2068.84,3117.13,3121.52,3344.10,350.28,325.04,18.65,0000 0000 0000 0000 000000
2013-11-03 02:23:18,0.08,0.95,0.00,19.57,21.20,24.10,5.97,31.13,1007.34,2068.79,3117.06,3121.31,3344.03,350.59,325.32,18.65,0000 0000 0000 0000 000000
2013-11-03 02:24:18,0.01,0.95,0.00,19.57,21.20,24.12,6.02,31.50,1007.34,2068.75,3117.02,3121.15,3344.01,349.51,324.31,18.66,0000 0000 0000 0000 000000
2013-11-03 02:25:19,-0.01,0.95,0.00,19.57,21.20,24.10,6.16,31.33,1007.34,2068.66,3117.00,3121.07,3344.00,350.38,325.13,18.66,0000 0000 0000 0000 000000
2013-11-03 02:26:19,-0.02,0.95,0.00,19.58,21.20,24.13,5.92,30.92,1007.34,2068.71,3117.00,3121.04,3344.00,350.06,324.82,18.67,0000 0000 0000 0000 000000
2013-11-03 02:27:19,0.03,0.95,0.00,19.57,21.20,24.11,6.03,31.08,1007.34,2068.68,3117.00,3121.03,3344.00,349.44,324.48,18.68,0000 0000 0000 0000 000000
2013-11-03 02:28:20,0.00,0.95,0.00,19.58,21.20,24.11,6.06,31.46,1007.33,2068.72,3117.00,3121.00,3344.00,350.90,325.37,18.68,0000 0000 0000 0000 000000
2013-11-03 02:29:20,0.04,0.95,0.00,19.58,21.20,24.08,5.84,31.33,1007.30,2068.83,3116.97,3121.00,3344.00,348.86,323.45,18.69,0000 0000 0000 0000 000000
2013-11-03 02:30:20,0.07,0.95,0.00,19.59,21.20,24.11,6.02,31.58,1007.27,2068.81,3116.93,3121.00,3343.99,350.32,325.03,18.69,0000 0000 0000 0000 000000
2013-11-03 02:31:20,-0.02,0.95,0.00,19.57,21.20,24.10,5.99,31.38,1007.22,2068.77,3116.75,3121.00,3343.98,350.22,325.22,18.70,0000 0000 0000 0000 000000
2013-11-03 02:32:21,0.01,0.95,0.00,19.57,21.20,24.11,5.98,31.54,1007.05,2068.78,3116.56,3121.00,3343.97,350.03,324.68,18.71,0000 0000 0000 0000 000000
2013-11-03 02:33:21,0.04,0.95,0.00,19.58,21.20,24.11,5.95,31.46,1006.93,2068.70,3116.25,3121.00,3343.87,349.64,324.30,18.71,0000 0000 0000 0000 000000
2013-11-03 02:34:21,0.00,0.95,0.00,19.58,21.20,24.09,6.08,31.63,1006.90,2068.65,3116.10,3120.97,3343.54,350.99,325.53,18.72,0000 0000 0000 0000 000000
2013-11-03 02:35:22,0.03,0.95,0.00,19.57,21.20,24.11,5.98,31.83,1006.92,2068.65,3116.03,3120.98,3343.24,349.38,323.99,18.72,0000 0000 0000 0000 000000
2013-11-03 02:36:22,0.05,0.95,0.00,19.57,21.20,24.11,5.93,31.83,1007.16,2068.65,3116.01,3120.96,3343.14,349.51,324.26,18.73,0000 0000 0000 0000 000000